Strona główna
METAR-TAF:

METAR-TAF

Lotnisko :

Elsenborn

Bütgenbach, Belgia

Szerokość geograficzna: 50-28N, Długość geograficzna: 006-11E, wysokość: 564 m

Aktualna obserwacja pogody

Raport powstał 49 minut temu, godzina 23:25 UTC
Wiatr 1 kt z kierunków zmiennych
Temperatura 15°C
Wilgotność 88%
Ciśnienie 1020 hPa
Widzialność 10 km lub więcej

METAR: EBLB 232325Z AUTO VRB01KT 9999 NCD 15/13 Q1020 BLU

czas: 02:14 (00:14 UTC)


TAF: brakujący

Obserwacja i prognoza pogody dla ponad 4000 lotnisk (raport METAR i TAF).

Dostępne stacje oznaczono żółtymi i czerwonymi punktami na mapie.

Najedź kursorem aby zobaczyć nazwę stacji.

Kliknij aby zobaczyć obserwacje i prognozy pogody.

Aby zmienić mapę: kliknij na zielony przycisk z czarnym krzyżykiem, aby powiększyć; na zielony przycisk z myślnikiem, aby pomniejszyć; na zielone strzałki, aby przejść do map sąsiednich.


METAR-TAF: